Погода в Туре

Франция     47°23′06″N   0°41′27″E
темп.,
°C
ветер,
м/с
пор.,
м/с
влажн.,
%
обл.,
%
осадки,
мм/ч
давл.,
гПа
погр.,
м
18 мая, вт
вт1823:00+9зюз513910 0.0 1017481
02:00+7зюз41096100 0.0 1018328
05:00+7зюз389798 0.0 1017230
08:00+8зюз4794100 0.0 1018313
11:00+13з466828 0.0 10181114
14:00+16зсз455013 0.1 10181977
17:00+16з4551100 0.0 10182123
20:00+13з367738 0.8 1019196
19 мая, ср
ср1923:00+9з388917 0.3 1021157
02:00+6зюз3109499 0.3 1022207
05:00+7юз399677 0.0 1021241
08:00+8юз4109691 0.6 1021437
11:00+12з578249 0.4 1022951
14:00+15зсз796123 2.6 10211984
17:00+16сз7954100 0.2 10212495
20:00+13ссз61073100 0.6 1023892
20 мая, чт
чт2023:00+8сз4979100 0.0 1026184
02:00+6сз3486100 0.0 102678
05:00+5зсз229159 0.0 102717
08:00+8юз1183100 0.0 102771
11:00+13ююз2359100 0.0 1027723
14:00+16ююз3450100 0.0 10251545
17:00+17ююз3453100 0.0 10241634
20:00+15юз3568100 0.0 1022217
21 мая, пт
пт2123:00+12ю347399 0.0 102154
02:00+10ю368797 0.0 1018113
05:00+8ю4988100 0.0 1016182
08:00+11ююз5137795 0.0 1015427
11:00+16юз71060100 0.0 1013985
14:00+11зсз61196100 1.6 1013537
17:00+11зюз61290100 1.8 1013532
20:00+12юз7138055 1.9 1012989
22 мая, сб
сб2223:00+10юз613824 0.0 1012707
02:00+8юз7149550 0.0 1012791
05:00+8юз7149192 0.0 1012810
08:00+9юз71386100 0.1 10131070
11:00+11зюз7128473 0.6 10131083
14:00+12юз7118167 1.7 10131096
17:00+14зюз812749 2.0 10131580
20:00+11зюз814844 3.6 10141068